FW7700 Weather Reports


time (UTC)temp
F
wind
direction
speed
knots
gust
knots
rain 1hr
in
rain 24hr
in
rain mn
in
humidity
%
barometer
mb
20260504081306 42 136 0.0 0.0 0.00 0.00 0.00 75 1013.5
20260504080245 42 129 0.0 0.0 0.00 0.00 0.00 75 1013.2
20260504050647 47 137 0.0 0.0 0.00 0.00 0.00 65 1013.5
20260504045627 47 140 0.0 0.9 0.00 0.00 0.00 64 1013.9
20260504044606 47 137 0.0 0.0 0.00 0.00 0.00 63 1013.5
20260504043544 47 142 0.0 0.0 0.00 0.00 0.00 63 1013.5
20260504042524 47 140 0.0 0.0 0.00 0.00 0.00 64 1013.5
20260504041503 47 140 0.0 0.0 0.00 0.00 0.00 63 1013.5
20260504040442 48 143 0.0 0.9 0.00 0.00 0.00 62 1013.5
20260504035420 48 142 0.0 0.0 0.00 0.00 0.00 61 1013.2
20260504034400 48 144 0.0 0.0 0.00 0.00 0.00 61 1013.2
20260504033338 48 177 0.0 0.0 0.00 0.00 0.00 61 1013.2
20260504032318 48 135 0.0 0.0 0.00 0.00 0.00 61 1013.2
20260504031257 48 135 0.0 0.0 0.00 0.00 0.00 62 1013.2
20260504030236 48 141 0.0 0.0 0.00 0.00 0.00 62 1013.2
20260504025214 48 141 0.0 0.0 0.00 0.00 0.00 60 1013.2
20260504024153 48 140 0.0 0.0 0.00 0.00 0.00 60 1013.2
20260504023133 48 142 0.0 0.0 0.00 0.00 0.00 60 1013.2
20260504022111 49 142 0.0 0.0 0.00 0.00 0.00 59 1013.2
20260504021051 49 142 0.0 0.0 0.00 0.00 0.00 58 1013.5
20260504020030 49 141 0.0 0.0 0.00 0.00 0.00 56 1012.9
20260504015008 49 139 0.0 0.0 0.00 0.00 0.00 55 1013.2
20260504013947 49 141 0.0 0.0 0.00 0.00 0.00 55 1012.9
20260504012926 50 139 0.0 0.0 0.00 0.00 0.00 54 1013.2
20260504011905 50 142 0.0 0.0 0.00 0.00 0.00 54 1012.9
20260504010844 51 137 0.0 0.0 0.00 0.00 0.00 54 1012.5
20260504005824 51 142 0.0 0.0 0.00 0.00 0.00 52 1012.5
20260504004802 52 150 0.0 0.0 0.00 0.00 0.00 49 1012.5
20260504003741 53 132 0.0 0.0 0.00 0.00 0.00 49 1012.5
20260504002720 55 145 0.0 0.0 0.00 0.00 0.00 45 1012.2
20260504001659 56 195 1.7 1.7 0.00 0.00 0.00 43 1012.2
20260504000638 57 278 0.0 0.9 0.00 0.00 0.00 42 1011.8
20260503235617 58 171 1.7 1.7 0.00 0.00 0.00 41 1011.8
20260503234556 59 285 1.7 1.7 0.00 0.00 0.00 40 1012.2
20260503233535 59 285 1.7 1.7 0.00 0.00 0.00 38 1011.8
20260503232514 60 193 1.7 1.7 0.00 0.00 0.00 38 1011.5
20260503231453 61 174 2.6 2.6 0.00 0.00 0.00 37 1011.8
20260503230432 61 255 3.5 5.2 0.00 0.00 0.00 37 1011.8
20260503225411 61 222 5.2 7.8 0.00 0.00 0.00 36 1011.8
20260503224350 61 357 1.7 1.7 0.00 0.00 0.00 35 1011.5
20260503223329 61 263 1.7 2.6 0.00 0.00 0.00 37 1011.8
20260503222308 61 106 1.7 1.7 0.00 0.00 0.00 36 1011.8
20260503220227 62 175 1.7 2.6 0.00 0.00 0.00 35 1011.8
20260503215205 62 206 4.3 7.8 0.00 0.00 0.00 36 1011.8
20260503212102 62 286 5.2 8.7 0.00 0.00 0.00 35 1011.8
20260503211041 60 283 1.7 2.6 0.00 0.00 0.00 37 1011.5
20260503210020 62 280 2.6 2.6 0.00 0.00 0.00 35 1011.8
20260503205000 61 299 3.5 5.2 0.00 0.00 0.00 37 1011.5
20260503202917 63 182 1.7 2.6 0.00 0.00 0.00 35 1011.8
20260503201856 60 308 5.2 7.0 0.00 0.00 0.00 36 1011.8
20260503200835 60 251 5.2 9.6 0.00 0.00 0.00 35 1012.5
20260503195814 60 267 7.0 8.7 0.00 0.00 0.00 35 1012.2
20260503194753 60 320 2.6 3.5 0.00 0.00 0.00 39 1012.2
20260503193732 59 334 1.7 2.6 0.00 0.00 0.00 37 1012.9
20260503192711 60 304 6.1 7.0 0.00 0.00 0.00 36 1012.5
20260503191650 59 235 6.1 7.8 0.00 0.00 0.00 36 1012.5
20260503185608 59 137 0.0 0.9 0.00 0.00 0.00 37 1012.9
20260503183526 59 290 7.8 9.6 0.00 0.00 0.00 37 1013.2
20260503182505 56 284 0.9 1.7 0.00 0.00 0.00 43 1012.9
20260503181444 57 341 6.1 9.6 0.00 0.00 0.00 39 1013.2
20260503180423 57 279 4.3 7.0 0.00 0.00 0.00 40 1013.2
20260503175402 55 281 9.6 11.3 0.00 0.00 0.00 40 1013.5
20260503174341 56 263 2.6 2.6 0.00 0.00 0.00 42 1013.5
20260503173320 56 185 2.6 2.6 0.00 0.00 0.00 39 1013.5
20260503172259 57 352 7.8 8.7 0.00 0.00 0.00 40 1013.5
20260503171238 57 255 4.3 7.0 0.00 0.00 0.00 42 1013.9
20260503170217 54 357 3.5 6.1 0.00 0.00 0.00 41 1013.9
20260503150826 52 295 2.6 3.5 0.00 0.00 0.00 46 1014.2